Location: Unspecified
(43.3830°N, 0.0000°E)
Time: 06:30:31
(UTC+00:00)

Transit 2A - Pass Details

Date: 25 June 2019
Orbit: 594 x 965 km, 66.7° (Epoch: 17 July)

Event Time Altitude Azimuth Distance (km) Brightness Sun altitude
Exits shadow 23:54:45 28° 234° (SW) 1,713 7.5 -23.2°
Maximum altitude 23:58:08 62° 305° (NW) 1,075 6.8 -23.2°
Drops below altitude 10° 00:04:19 10° 26° (NNE) 2,643 9.6 -23.2°
Sets 00:06:51 0° 30° (NNE) 3,552 10.4 -23.2°
